Princeton, MN

10:19 PM CST on November 19, 2019 (GMT -0600)
Princeton Municipal

Weather History for KPNM - August, 2019

Change the Weather History Date:

Sunday, August 25, 2019

  Actual Average Record
Temperature  
Mean Temperature 66 °F -  
Max Temperature 73 °F 76 °F 95 °F (2013)
Min Temperature 60 °F 54 °F 39 °F (2008)
Cooling Degree Days 2    
Growing Degree Days 16 (Base 50)    
Moisture  
Dew Point 57 °F    
Average Humidity 73    
Maximum Humidity 88    
Minimum Humidity 53    
Precipitation  
Precipitation 0.00 in - - ()
Sea Level Pressure  
Sea Level Pressure 30.00 in    
Wind  
Wind Speed 7 mph (SE)    
Max Wind Speed 15 mph    
Max Gust Speed 24 mph    
Visibility 10 miles    
Events Rain    
Averages and records for this station are not official NWS values.
T = Trace of Precipitation, MM = Missing Value Source: NWS Daily Summary

Daily Weather History Graph

Daily Weather History Graph

Search for Another Location

Airport or City:

Astronomy

Aug. 25, 2019 Rise Set
Actual Time 6:26 AM CDT 8:05 PM CDT
Civil Twilight 5:55 AM CDT 8:36 PM CDT
Nautical Twilight 5:17 AM CDT 9:14 PM CDT
Astronomical Twilight 4:36 AM CDT 9:55 PM CDT
Moon 12:53 AM CDT (8/25) 4:37 PM CDT (8/25)
Length of Visible Light 14h 40m
Length of Day
13h 38m
Waning Crescent, 29% of the Moon is Illuminated
Aug 25
Waning Crescent
Aug 30
New
Sep 5
First Quarter
Sep 13
Full
Sep 21
Last Quarter

Hourly Weather History & Observations

Time (CDT) Temp. Dew Point Humidity Pressure Visibility Wind Dir Wind Speed Gust Speed Precip Events Conditions
12:15 AM 64.4 °F 55.4 °F 73% 30.11 in 10.0 mi ESE 5.8 mph - N/A   Overcast
12:20 AM 64.4 °F 55.4 °F 73% 30.11 in 10.0 mi SE 5.8 mph - N/A   Overcast
12:38 AM 64.4 °F 55.4 °F 73% 30.11 in 10.0 mi ESE 5.8 mph - N/A   Overcast
12:56 AM 64.4 °F 55.4 °F 73% 30.11 in 10.0 mi SE 3.5 mph - N/A   Overcast
1:15 AM 64.4 °F 55.4 °F 73% 30.11 in 10.0 mi SE 6.9 mph - N/A   Overcast
1:35 AM 64.4 °F 55.4 °F 73% 30.10 in 10.0 mi SE 4.6 mph - N/A   Overcast
1:36 AM 64.4 °F 55.4 °F 73% 30.10 in 10.0 mi SE 4.6 mph - N/A   Overcast
1:59 AM 62.6 °F 55.4 °F 77% 30.10 in 10.0 mi ESE 5.8 mph - N/A   Mostly Cloudy
2:17 AM 62.6 °F 55.4 °F 77% 30.08 in 10.0 mi ESE 5.8 mph - N/A   Mostly Cloudy
2:35 AM 62.6 °F 55.4 °F 77% 30.08 in 10.0 mi SE 5.8 mph - N/A   Mostly Cloudy
2:55 AM 62.6 °F 55.4 °F 77% 30.07 in 10.0 mi ESE 5.8 mph - N/A   Mostly Cloudy
3:15 AM 62.6 °F 55.4 °F 77% 30.07 in 10.0 mi ESE 8.1 mph - N/A   Scattered Clouds
3:38 AM 62.6 °F 55.4 °F 77% 30.07 in 10.0 mi SE 6.9 mph - N/A   Scattered Clouds
3:56 AM 62.6 °F 55.4 °F 77% 30.06 in 10.0 mi ESE 5.8 mph - N/A   Scattered Clouds
4:15 AM 62.6 °F 55.4 °F 77% 30.06 in 10.0 mi SE 5.8 mph - N/A   Scattered Clouds
4:16 AM 62.6 °F 55.4 °F 77% 30.06 in 10.0 mi ESE 4.6 mph - N/A   Scattered Clouds
4:35 AM 62.6 °F 55.4 °F 77% 30.05 in 10.0 mi SE 4.6 mph - N/A   Mostly Cloudy
4:59 AM 60.8 °F 55.4 °F 82% 30.05 in 10.0 mi ESE 3.5 mph - N/A   Scattered Clouds
5:17 AM 60.8 °F 55.4 °F 82% 30.05 in 10.0 mi ESE 4.6 mph - N/A   Clear
5:35 AM 60.8 °F 55.4 °F 82% 30.05 in 10.0 mi ESE 5.8 mph - N/A   Clear
5:36 AM 60.8 °F 55.4 °F 82% 30.05 in 10.0 mi ESE 5.8 mph - N/A   Clear
5:55 AM 60.8 °F 55.4 °F 82% 30.05 in 10.0 mi ESE 4.6 mph - N/A   Clear
6:15 AM 60.8 °F 55.4 °F 82% 30.04 in 10.0 mi ESE 6.9 mph - N/A   Clear
6:38 AM 60.8 °F 55.4 °F 82% 30.05 in 10.0 mi ESE 5.8 mph - N/A   Clear
6:56 AM 60.8 °F 55.4 °F 82% 30.05 in 10.0 mi SE 4.6 mph - N/A   Scattered Clouds
7:15 AM 60.8 °F 55.4 °F 82% 30.05 in 10.0 mi ESE 3.5 mph - N/A   Overcast
7:35 AM 62.6 °F 55.4 °F 77% 30.05 in 10.0 mi ESE 4.6 mph - N/A   Overcast
7:59 AM 62.6 °F 55.4 °F 77% 30.05 in 10.0 mi ESE 8.1 mph - N/A   Overcast
8:17 AM 62.6 °F 55.4 °F 77% 30.04 in 5.0 mi ESE 8.1 mph - N/A   Haze
8:35 AM 64.4 °F 55.4 °F 73% 30.04 in 10.0 mi ESE 5.8 mph - N/A   Scattered Clouds
8:55 AM 64.4 °F 55.4 °F 73% 30.04 in 10.0 mi ESE 9.2 mph - N/A   Overcast
9:15 AM 64.4 °F 55.4 °F 73% 30.03 in 10.0 mi SE 9.2 mph - N/A   Overcast
9:38 AM 66.2 °F 55.4 °F 68% 30.03 in 10.0 mi SE 9.2 mph - N/A   Scattered Clouds
9:55 AM 68.0 °F 55.4 °F 64% 30.03 in 10.0 mi SE 9.2 mph - N/A   Clear
10:15 AM 69.8 °F 55.4 °F 60% 30.03 in 10.0 mi SE 11.5 mph 16.1 mph N/A   Clear
10:16 AM 69.8 °F 55.4 °F 60% 30.03 in 10.0 mi SE 10.4 mph 16.1 mph N/A   Clear
10:35 AM 71.6 °F 57.2 °F 60% 30.03 in 10.0 mi SE 8.1 mph 18.4 mph N/A   Clear
10:59 AM 71.6 °F 57.2 °F 60% 30.03 in 10.0 mi SSE 6.9 mph 17.3 mph N/A   Clear
11:17 AM 69.8 °F 55.4 °F 60% 30.02 in 10.0 mi ESE 11.5 mph 17.3 mph N/A   Clear
11:35 AM 69.8 °F 55.4 °F 60% 30.02 in 10.0 mi SE 9.2 mph - N/A   Clear
11:36 AM 69.8 °F 55.4 °F 60% 30.02 in 10.0 mi SE 8.1 mph - N/A   Clear
11:55 AM 71.6 °F 57.2 °F 60% 30.01 in 10.0 mi ESE 8.1 mph - N/A   Clear
12:15 PM 71.6 °F 57.2 °F 60% 30.00 in 10.0 mi SE 13.8 mph 20.7 mph N/A   Clear
12:38 PM 73.4 °F 57.2 °F 57% 30.00 in 10.0 mi SE 8.1 mph 19.6 mph N/A   Scattered Clouds
12:56 PM 73.4 °F 57.2 °F 57% 29.99 in 10.0 mi SE 12.7 mph 19.6 mph N/A   Mostly Cloudy
1:15 PM 73.4 °F 55.4 °F 53% 29.99 in 10.0 mi SE 15.0 mph 24.2 mph N/A   Scattered Clouds
1:35 PM 73.4 °F 55.4 °F 53% 29.99 in 10.0 mi SE 12.7 mph 16.1 mph N/A   Mostly Cloudy
1:36 PM 73.4 °F 55.4 °F 53% 29.99 in 10.0 mi SE 11.5 mph 16.1 mph N/A   Mostly Cloudy
1:59 PM 73.4 °F 57.2 °F 57% 29.98 in 10.0 mi SE 10.4 mph 17.3 mph N/A   Mostly Cloudy
2:17 PM 73.4 °F 57.2 °F 57% 29.98 in 10.0 mi SSE 12.7 mph - N/A   Mostly Cloudy
2:35 PM 73.4 °F 57.2 °F 57% 29.98 in 10.0 mi SE 12.7 mph 17.3 mph N/A   Mostly Cloudy
2:36 PM 73.4 °F 57.2 °F 57% 29.98 in 10.0 mi SE 12.7 mph 17.3 mph N/A   Mostly Cloudy
2:55 PM 71.6 °F 57.2 °F 60% 29.97 in 10.0 mi SE 10.4 mph - N/A   Overcast
3:15 PM 73.4 °F 57.2 °F 57% 29.97 in 10.0 mi SSE 10.4 mph 17.3 mph N/A   Mostly Cloudy
3:20 PM 73.4 °F 57.2 °F 57% 29.97 in 10.0 mi SE 9.2 mph 16.1 mph N/A   Mostly Cloudy
3:38 PM 71.6 °F 57.2 °F 60% 29.96 in 10.0 mi SE 9.2 mph - N/A Rain Light Rain
3:56 PM 71.6 °F 57.2 °F 60% 29.96 in 10.0 mi SE 8.1 mph - N/A Rain Light Rain
4:15 PM 69.8 °F 59.0 °F 68% 29.95 in 10.0 mi ESE 4.6 mph - N/A   Light Drizzle
4:35 PM 69.8 °F 59.0 °F 68% 29.94 in 10.0 mi SE 6.9 mph - N/A   Overcast
4:36 PM 69.8 °F 57.2 °F 64% 29.94 in 10.0 mi SE 5.8 mph - N/A   Overcast
4:59 PM 71.6 °F 57.2 °F 60% 29.93 in 10.0 mi ESE 6.9 mph - N/A   Mostly Cloudy
5:17 PM 71.6 °F 57.2 °F 60% 29.93 in 10.0 mi ESE 6.9 mph - N/A   Overcast
5:35 PM 71.6 °F 57.2 °F 60% 29.92 in 10.0 mi SE 8.1 mph - N/A   Mostly Cloudy
5:55 PM 68.0 °F 59.0 °F 73% 29.93 in 10.0 mi SE 9.2 mph 18.4 mph N/A Rain Light Rain
6:15 PM 66.2 °F 59.0 °F 78% 29.93 in 10.0 mi SE 9.2 mph - N/A   Light Drizzle
6:20 PM 66.2 °F 59.0 °F 78% 29.93 in 10.0 mi SE 8.1 mph - N/A   Mostly Cloudy
6:38 PM 66.2 °F 59.0 °F 78% 29.93 in 10.0 mi ESE 4.6 mph - N/A   Mostly Cloudy
6:56 PM 66.2 °F 60.8 °F 83% 29.93 in 10.0 mi ESE 6.9 mph - N/A Rain Light Rain
7:15 PM 66.2 °F 60.8 °F 83% 29.92 in 10.0 mi ESE 4.6 mph - N/A   Overcast
7:35 PM 66.2 °F 60.8 °F 83% 29.92 in 10.0 mi ESE 6.9 mph - N/A Rain Light Rain
7:36 PM 66.2 °F 60.8 °F 83% 29.92 in 10.0 mi ESE 6.9 mph - N/A Rain Light Rain
7:59 PM 64.4 °F 60.8 °F 88% 29.91 in 10.0 mi ESE 5.8 mph - N/A Rain Light Rain
8:17 PM 64.4 °F 60.8 °F 88% 29.91 in 10.0 mi ESE 6.9 mph - N/A   Overcast
8:36 PM 64.4 °F 60.8 °F 88% 29.91 in 10.0 mi ESE 8.1 mph - N/A Rain Light Rain
8:55 PM 64.4 °F 60.8 °F 88% 29.91 in 10.0 mi ESE 8.1 mph - N/A Rain Light Rain
9:15 PM 64.4 °F 60.8 °F 88% 29.91 in 10.0 mi ESE 6.9 mph - N/A   Mostly Cloudy
9:38 PM 64.4 °F 60.8 °F 88% 29.90 in 10.0 mi ESE 8.1 mph - N/A   Mostly Cloudy
9:56 PM 64.4 °F 60.8 °F 88% 29.90 in 10.0 mi ESE 8.1 mph - N/A   Overcast
10:15 PM 64.4 °F 60.8 °F 88% 29.91 in 10.0 mi ESE 9.2 mph - N/A   Overcast
10:35 PM 64.4 °F 60.8 °F 88% 29.90 in 10.0 mi ESE 6.9 mph - N/A   Overcast
10:59 PM 64.4 °F 60.8 °F 88% 29.90 in 10.0 mi SE 6.9 mph - N/A   Mostly Cloudy
11:17 PM 64.4 °F 60.8 °F 88% 29.90 in 10.0 mi SE 9.2 mph - N/A   Overcast
11:35 PM 64.4 °F 60.8 °F 88% 29.90 in 10.0 mi SE 8.1 mph - N/A   Overcast
11:36 PM 64.4 °F 60.8 °F 88% 29.90 in 10.0 mi SE 8.1 mph - N/A   Overcast
11:55 PM 64.4 °F 60.8 °F 88% 29.89 in 10.0 mi SE 5.8 mph - N/A   Overcast